Weather History for Mandan, ND

Change the Weather History Date:

Wednesday, May 29, 2013

  Actual Average (KBIS) Record (KBIS)
Temperature  
Mean Temperature 65 °F 60 °F  
Max Temperature 75 °F 72 °F 97 °F (1934)
Min Temperature 55 °F 47 °F 25 °F (1947)
Degree Days  
Heating Degree Days 0 6  
Month to date heating degree days 298  
Since 1 July heating degree days 8453  
Cooling Degree Days 0 1  
Month to date cooling degree days 11  
Year to date cooling degree days 12  
Growing Degree Days 15 (Base 50)    
Moisture  
Dew Point 58 °F    
Average Humidity 76    
Maximum Humidity 100    
Minimum Humidity 46    
Precipitation  
Precipitation 0.00 in 0.09 in 1.88 in (1876)
Month to date precipitation 2.21  
Year to date precipitation 5.28  
Snow  
Snow 0.00 in 0.00 in 0.00 in (2002)
Month to date snowfall 0.4  
Since 1 July snowfall 51.2  
Snow Depth -    
Sea Level Pressure  
Sea Level Pressure 29.63 in    
Wind  
Wind Speed 11 mph (ENE)    
Max Wind Speed 17 mph    
Max Gust Speed 23 mph    
Visibility 10 miles    
Events      
T = Trace of Precipitation, MM = Missing Value Source: NWS Daily Summary

Daily Weather History Graph

Daily Weather History Graph

Search for Another Location

Airport:

Trip Planner

Search our weather history database for the weather conditions in past years. The results will help you decide how hot, cold, wet, or windy it might be!

Date:

Astronomy

May. 29, 2013 Rise Set
Actual Time 5:55 AM CDT 9:27 PM CDT
Civil Twilight 5:17 AM CDT 10:05 PM CDT
Nautical Twilight 4:26 AM CDT 10:56 PM CDT
Astronomical Twilight 3:20 AM CDT 12:03 AM CDT
Moon 12:42 AM CDT (5/29) 11:07 AM CDT (5/29)
Length of Visible Light 16h 48m
Length of Day
15h 32m
Waning Gibbous, 73% of the Moon is Illuminated
May 29
Waning Gibbous
May 31
Last Quarter
Jun 8
New
Jun 16
First Quarter
Jun 23
Full

Hourly Weather History & Observations

Time (CDT) Temp. Dew Point Humidity Pressure Visibility Wind Dir Wind Speed Gust Speed Precip Events Conditions
7:15 AM 55.4 °F 55.4 °F 100% 29.66 in 10.0 mi North 10.4 mph - N/A   Unknown
7:35 AM 55.4 °F 55.4 °F 100% 29.66 in 10.0 mi North 9.2 mph - N/A   Clear
7:55 AM 55.4 °F 55.4 °F 100% 29.66 in 10.0 mi North 9.2 mph - N/A   Clear
8:15 AM 57.2 °F 57.2 °F 100% 29.65 in 10.0 mi North 10.4 mph - N/A   Partly Cloudy
8:35 AM 59.0 °F 59.0 °F 100% 29.66 in 10.0 mi NE 9.2 mph - N/A   Mostly Cloudy
8:55 AM 59.0 °F 59.0 °F 100% 29.66 in 10.0 mi NNE 8.1 mph - N/A   Overcast
9:15 AM 59.0 °F 59.0 °F 100% 29.67 in 10.0 mi ENE 5.8 mph - N/A   Overcast
9:35 AM 57.2 °F 57.2 °F 100% 29.68 in 10.0 mi ESE 8.1 mph - N/A   Overcast
9:55 AM 59.0 °F 59.0 °F 100% 29.69 in 10.0 mi East 9.2 mph - N/A   Overcast
10:15 AM 60.8 °F 59.0 °F 94% 29.69 in 10.0 mi East 6.9 mph - N/A   Overcast
10:35 AM 62.6 °F 60.8 °F 94% 29.68 in 10.0 mi East 6.9 mph - N/A   Mostly Cloudy
10:55 AM 64.4 °F 60.8 °F 88% 29.68 in 10.0 mi ENE 10.4 mph - N/A   Mostly Cloudy
11:15 AM 64.4 °F 59.0 °F 83% 29.69 in 10.0 mi East 11.5 mph - N/A   Overcast
11:35 AM 66.2 °F 60.8 °F 83% 29.69 in 10.0 mi East 12.7 mph - N/A   Overcast
11:55 AM 68.0 °F 59.0 °F 73% 29.69 in 10.0 mi East 13.8 mph 17.3 mph N/A   Mostly Cloudy
12:15 PM 68.0 °F 57.2 °F 68% 29.68 in 10.0 mi ENE 17.3 mph - N/A   Partly Cloudy
12:35 PM 68.0 °F 57.2 °F 68% 29.68 in 10.0 mi ENE 12.7 mph 18.4 mph N/A   Clear
12:55 PM 69.8 °F 59.0 °F 68% 29.67 in 10.0 mi NE 12.7 mph - N/A   Clear
1:15 PM 71.6 °F 62.6 °F 73% 29.66 in 10.0 mi East 12.7 mph 18.4 mph N/A   Clear
1:35 PM 71.6 °F 62.6 °F 73% 29.66 in 10.0 mi East 11.5 mph 17.3 mph N/A   Clear
1:55 PM 73.4 °F 59.0 °F 61% 29.66 in 10.0 mi ENE 13.8 mph 18.4 mph N/A   Partly Cloudy
2:15 PM 73.4 °F 57.2 °F 57% 29.65 in 10.0 mi ENE 12.7 mph - N/A   Partly Cloudy
2:35 PM 73.4 °F 57.2 °F 57% 29.65 in 10.0 mi ENE 12.7 mph 18.4 mph N/A   Clear
2:55 PM 75.2 °F 55.4 °F 50% 29.64 in 10.0 mi ENE 12.7 mph - N/A   Scattered Clouds
3:15 PM 73.4 °F 53.6 °F 50% 29.63 in 10.0 mi ENE 10.4 mph - N/A   Partly Cloudy
3:35 PM 75.2 °F 55.4 °F 50% 29.62 in 10.0 mi East 12.7 mph - N/A   Clear
3:55 PM 75.2 °F 55.4 °F 50% 29.61 in 10.0 mi East 15.0 mph 18.4 mph N/A   Clear
4:15 PM 75.2 °F 55.4 °F 50% 29.61 in 10.0 mi East 10.4 mph 19.6 mph N/A   Clear
4:35 PM 73.4 °F 57.2 °F 57% 29.61 in 10.0 mi East 12.7 mph 19.6 mph N/A   Mostly Cloudy
4:55 PM 75.2 °F 57.2 °F 53% 29.61 in 10.0 mi East 17.3 mph 23.0 mph N/A   Mostly Cloudy
5:15 PM 73.4 °F 57.2 °F 57% 29.60 in 10.0 mi East 15.0 mph - N/A   Scattered Clouds
5:35 PM 73.4 °F 57.2 °F 57% 29.59 in 10.0 mi East 15.0 mph 20.7 mph N/A   Partly Cloudy
5:55 PM 71.6 °F 55.4 °F 57% 29.58 in 10.0 mi East 16.1 mph 20.7 mph N/A   Scattered Clouds
6:15 PM 71.6 °F 53.6 °F 53% 29.58 in 10.0 mi East 11.5 mph - N/A   Partly Cloudy
6:35 PM 73.4 °F 51.8 °F 47% 29.60 in 10.0 mi East 15.0 mph 21.9 mph N/A   Clear
6:55 PM 71.6 °F 50.0 °F 46% 29.60 in 10.0 mi East 13.8 mph 18.4 mph N/A   Clear
7:15 PM 71.6 °F 51.8 °F 50% 29.59 in 10.0 mi East 11.5 mph - N/A   Clear
7:35 PM 69.8 °F 57.2 °F 64% 29.56 in 10.0 mi East 13.8 mph - N/A   Clear
7:55 PM 68.0 °F 59.0 °F 73% 29.55 in 10.0 mi East 11.5 mph 17.3 mph N/A   Clear
8:15 PM 68.0 °F 59.0 °F 73% 29.57 in 10.0 mi East 13.8 mph 17.3 mph N/A   Clear
8:35 PM 66.2 °F 59.0 °F 78% 29.58 in 10.0 mi East 11.5 mph - N/A   Clear
8:55 PM 66.2 °F 59.0 °F 78% 29.58 in 10.0 mi East 11.5 mph - N/A   Clear
9:15 PM 64.4 °F 59.0 °F 83% 29.57 in 10.0 mi East 15.0 mph - N/A   Clear
9:35 PM 64.4 °F 59.0 °F 83% 29.58 in 10.0 mi East 11.5 mph - N/A   Clear
9:55 PM 64.4 °F 59.0 °F 83% 29.59 in 10.0 mi East 12.7 mph - N/A   Mostly Cloudy
10:15 PM 62.6 °F 59.0 °F 88% 29.60 in 10.0 mi East 11.5 mph - N/A   Overcast
10:35 PM 62.6 °F 60.8 °F 94% 29.60 in 10.0 mi East 13.8 mph - N/A   Overcast
10:55 PM 62.6 °F 62.6 °F 100% 29.59 in 10.0 mi East 11.5 mph - N/A   Overcast
11:15 PM 60.8 °F 60.8 °F 100% 29.58 in 10.0 mi East 15.0 mph 19.6 mph N/A   Overcast
11:35 PM 59.0 °F 59.0 °F 100% 29.59 in 10.0 mi ENE 12.7 mph 16.1 mph N/A   Mostly Cloudy
11:55 PM 59.0 °F 59.0 °F 100% 29.57 in 10.0 mi ENE 8.1 mph - N/A   Overcast